Flag for China Weather past 2 weeks in Tianjin, Tianjin Municipality, China

Now
75 °F

Clear.


Feels Like: 78 °F
Forecast: 56 / 77 °F
Wind: 3 mph from North

Location: Tianjin / Zhangguizhu

Current Time: Sep 18, 2014 at 12:10:55 PM

Latest Report: Sep 18, 2014 at 11:30 AM


Visibility: 5 mi

Pressure: 30.12 "Hg

Humidity: 41%

Dew point: 50 °F

Location of TianjinLocation

Historic Weather in Tianjin — Graph

°F

Tianjin temperature yesterday

Maximum temperature yesterday: 68 °F (at 12:00 PM)
Minimum temperature yesterday: 61 °F (at 4:00 AM)
Average temperature yesterday: 64 °F

Past Weeks' High & Low Weather Summary

 TemperatureHumidityPressure
High90 °F (Sep 4, 1:00 PM)94% (Sep 6, 5:30 AM)30.18 "Hg (Sep 6, 5:30 AM)
Low54 °F (Sep 18, 5:30 AM)13% (Sep 15, 3:30 PM)29.65 "Hg (Sep 4, 1:30 PM)
Average72 °F61%29.92 "Hg
* Reported Sep 3 10:00 AM — Sep 18 10:30 AM, Tianjin, Weather by CustomWeather, © 2014

Note: Actual official high and low records may vary slightly from our data, if they occured in-between our weather recording intervals... More about our weather records

Advertising

Tianjin weather history for previous 24 hours

 ConditionsComfort  
Time TempWeatherWind HumidityBarometerVisibility
10:30 AM
Sep 18
73 °FClear.3 mph47%30.15 "Hg4 mi
10:00 AM72 °FHaze.6 mph53%30.15 "Hg3 mi
9:30 AM70 °FHaze.6 mph60%30.15 "Hg2 mi
9:00 AM66 °FHaze.3 mph68%30.18 "Hg2 mi
8:30 AM64 °FFog.3 mph78%30.15 "Hg2 mi
8:00 AM63 °FFog.3 mph77%30.15 "Hg2 mi
7:30 AM61 °FFog.1 mph88%30.15 "Hg2 mi
7:00 AM57 °FFog.1 mph94%30.15 "Hg2 mi
6:30 AM55 °FFog.1 mph94%30.15 "Hg1 mi
6:00 AM54 °FFog.No wind94%30.15 "Hg1 mi
5:30 AM54 °FFog.1 mph94%30.15 "Hg1 mi
5:00 AM55 °FFog.No wind88%30.15 "Hg1 mi
4:30 AM55 °FFog.No wind88%30.15 "Hg1 mi
4:00 AM55 °FFog.1 mph88%30.15 "Hg1 mi
3:30 AM55 °FFog.1 mph88%30.15 "Hg1 mi
3:00 AM59 °FFog.1 mph82%30.15 "Hg1 mi
2:30 AM59 °FFog.3 mph82%30.15 "Hg1 mi
2:00 AM59 °FFog.3 mph82%30.15 "Hg1 mi
1:30 AM59 °FFog.1 mph82%30.15 "Hg1 mi
1:00 AM59 °FFog.1 mph82%30.15 "Hg1 mi
12:30 AM61 °FFog.1 mph77%30.18 "Hg2 mi
12:00 AM61 °FFog.1 mph77%30.15 "Hg2 mi
11:30 PM
Sep 17
61 °FFog.1 mph77%30.15 "Hg2 mi
11:00 PM61 °FFog.3 mph77%30.18 "Hg2 mi
10:30 PM63 °FHaze.1 mph73%30.18 "Hg2 mi
10:00 PM63 °FHaze.3 mph73%30.15 "Hg2 mi
9:30 PM63 °FHaze.3 mph73%30.15 "Hg2 mi
9:00 PM63 °FHaze.3 mph73%30.15 "Hg3 mi
8:30 PM64 °FHaze.3 mph68%30.15 "Hg3 mi
8:00 PM64 °FHaze.3 mph68%30.15 "Hg3 mi
7:30 PM64 °FClear.3 mph68%30.15 "Hg4 mi
7:00 PM66 °FClear.3 mph64%30.12 "Hg4 mi
6:30 PM66 °FClear.3 mph64%30.12 "Hg5 mi
6:00 PM66 °FSunny.3 mph60%30.12 "Hg10 mi
5:30 PM66 °FSunny.3 mph60%30.12 "Hg10 mi
5:00 PM68 °FPassing clouds.3 mph56%30.12 "HgN/A
4:30 PM68 °FSunny.3 mph56%30.12 "Hg10 mi
4:00 PM68 °FSunny.3 mph56%30.12 "Hg10 mi
3:30 PM68 °FSunny.3 mph56%30.12 "Hg10 mi
3:00 PM68 °FSunny.1 mph56%30.12 "Hg10 mi
2:30 PM68 °FPassing clouds.3 mph56%30.12 "HgN/A
2:00 PM66 °FPassing clouds.3 mph60%30.12 "HgN/A
1:30 PM68 °FPassing clouds.6 mph53%30.15 "HgN/A
1:00 PM66 °FPassing clouds.6 mph60%30.15 "HgN/A
12:30 PM68 °FPassing clouds.6 mph56%30.15 "HgN/A
12:00 PM68 °FPassing clouds.3 mph56%30.15 "HgN/A
Weather by CustomWeather, © 2014

See weather overviewHow to use our weather pages